SMOG-P (44832 NORAD) Tracking and Keplerian Element Data

This shows tracking and keplerian element data for the satellite.

Feedback or suggestion? Click here.




ElementValue
Catalog44832
NameSMOG-P
Epoch Orbit4677
Epoch Day272.06303716
Epoch Year2020
RAAN144.0914
Inclination96.9437
Eccentricity0.0010614
Argument of Perigee231.8961
Mean Anonmoly128.1384
Mean Motion16.41416157
Decay Rate0.114534
L11 44832U 19084J 20272.06303716 .11453400 23230-5 63587-3 0 9997
L22 44832 96.9437 144.0914 0010614 231.8961 128.1384 16.41416157 46773



Live tracking and technical data element details for SMOG-P (NORAD 44832). SMOG-P can be tracked NOW for your location showing map with azimuth and elevation plus other details from your city location.







IsCatalogInMostPopularTable: catalog: 44832, numindb: 240
Update: records affected: 1



GetName: 44832 SMOG-P

Hit Count: updated at: Fri, 02 Dec 2022 14:14:06 GMT